GW1920 Weather Reports


Display with metric or nautical units.
time (UTC)temp
F
wind
direction
speed
MPH
gust
MPH
rain 1hr
in
rain 24hr
in
rain mn
in
humidity
%
barometer
mb
20260901212358 62 5 0.0 0.0 0.00 0.02 0.02 89 1009.3
20260901211855 62 37 0.0 0.0 0.00 0.02 0.02 92 1009.7
20260901211350 61 15 0.0 0.0 0.00 0.02 0.02 93 1009.5
20260901210846 61 30 0.0 0.0 0.00 0.02 0.02 94 1009.7
20260901210341 61 346 0.0 0.0 0.00 0.02 0.02 94 1009.6
20260901205838 61 344 0.0 0.0 0.00 0.02 0.02 95 1009.5
20260901205337 61 344 0.0 0.0 0.00 0.02 0.02 93 1009.7
20260901204832 60 18 0.0 0.0 0.00 0.02 0.02 94 1009.7
20260901204328 60 3 0.0 0.0 0.00 0.02 0.02 94 1009.9
20260901203824 60 346 0.0 0.0 0.00 0.02 0.02 94 1009.5
20260901203323 60 5 0.0 0.0 0.00 0.02 0.02 94 1009.6
20260901202818 60 355 0.0 0.0 0.00 0.02 0.02 94 1009.7
20260901202313 60 21 0.0 0.0 0.00 0.02 0.02 95 1009.6
20260901201809 61 25 0.0 0.0 0.00 0.02 0.02 96 1009.7
20260901201308 60 17 0.0 0.0 0.00 0.02 0.02 96 1009.7
20260901200802 60 20 0.0 0.0 0.00 0.02 0.02 95 1009.9
20260901200258 61 27 0.0 0.0 0.00 0.02 0.02 96 1009.8
20260901195755 61 14 0.0 0.0 0.00 0.02 0.02 96 1009.9
20260901195250 60 11 0.0 0.0 0.00 0.02 0.02 95 1009.7
20260901194745 60 17 0.0 0.0 0.05 0.02 0.02 96 1009.8
20260901194240 60 2 0.0 0.0 0.05 0.02 0.02 96 1009.9
20260901193736 60 0 0.0 0.0 0.00 0.01 0.01 96 1010.0
20260901193235 60 2 0.0 0.0 0.00 0.01 0.01 96 1009.9
20260901192730 60 350 0.0 0.0 0.00 0.01 0.01 95 1009.8
20260901192225 60 0 0.0 0.0 0.07 0.01 0.01 94 1009.7
20260901191721 61 2 0.0 0.0 0.07 0.01 0.01 93 1010.1
20260901191218 61 352 0.0 0.0 0.00 0.00 0.00 92 1009.8
20260901190713 62 3 0.0 0.0 0.00 0.00 0.00 89 1009.9
20260901190212 62 356 0.0 0.0 0.00 0.00 0.00 88 1009.7
20260901185711 62 351 0.0 0.0 0.00 0.00 0.00 87 1009.8
20260901185209 62 344 3.0 3.0 0.00 0.00 0.00 86 1009.6
20260901184706 62 323 2.0 3.0 0.00 0.00 0.00 86 1009.7
20260901184200 63 353 1.0 1.0 0.00 0.00 0.00 85 1009.7
20260901183656 64 329 2.0 2.0 0.00 0.00 0.00 83 1009.5
20260901183155 64 358 2.0 2.0 0.00 0.00 0.00 83 1009.5
20260901182652 64 344 0.0 0.0 0.00 0.00 0.00 83 1009.4
20260901182150 63 349 1.0 2.0 0.00 0.00 0.00 86 1009.3
20260901181646 63 335 1.0 1.0 0.00 0.00 0.00 87 1009.4
20260901181140 63 356 0.0 0.0 0.00 0.00 0.00 88 1009.3
20260901180640 63 6 0.0 0.0 0.00 0.00 0.00 89 1009.3
20260901180134 63 354 0.0 0.0 0.00 0.00 0.00 89 1009.1
20260901175633 63 333 2.0 2.0 0.00 0.00 0.00 88 1009.1
20260901175133 63 341 0.0 1.0 0.00 0.00 0.00 88 1008.8
20260901174628 64 351 0.0 0.0 0.00 0.00 0.00 87 1008.7
20260901174124 64 351 0.0 0.0 0.00 0.00 0.00 87 1008.8
20260901173619 64 354 1.0 2.0 0.00 0.00 0.00 88 1008.6
20260901173115 65 314 4.0 5.0 0.00 0.00 0.00 85 1008.5
20260901172610 65 1 0.0 0.0 0.00 0.00 0.00 84 1008.6
20260901172108 64 353 1.0 1.0 0.00 0.00 0.00 86 1008.6
20260901171608 64 349 2.0 2.0 0.00 0.00 0.00 83 1008.5
20260901171102 65 12 0.0 0.0 0.00 0.00 0.00 82 1008.5
20260901170601 65 8 0.0 0.0 0.00 0.00 0.00 82 1008.5
20260901170056 64 5 0.0 0.0 0.00 0.00 0.00 85 1008.6
20260901165556 63 1 0.0 0.0 0.00 0.00 0.00 85 1008.5
20260901165051 63 1 0.0 0.0 0.00 0.00 0.00 87 1008.5
20260901164546 63 1 0.0 0.0 0.00 0.00 0.00 88 1008.6
20260901164041 63 7 0.0 0.0 0.00 0.00 0.00 87 1008.7
20260901163537 62 8 0.0 0.0 0.00 0.00 0.00 89 1008.4
20260901163036 62 9 0.0 0.0 0.00 0.00 0.00 89 1008.6
20260901162531 62 1 0.0 0.0 0.00 0.00 0.00 90 1008.7
20260901162031 62 359 0.0 0.0 0.00 0.00 0.00 90 1008.5
20260901161529 61 359 0.0 0.0 0.00 0.00 0.00 90 1008.8
20260901161029 61 359 0.0 0.0 0.00 0.00 0.00 91 1008.6
20260901160526 60 358 0.0 0.0 0.00 0.00 0.00 92 1008.4
20260901160021 60 359 0.0 0.0 0.00 0.00 0.00 93 1008.6
20260901155519 60 359 0.0 0.0 0.00 0.00 0.00 93 1008.5
20260901155016 60 3 0.0 0.0 0.00 0.00 0.00 93 1008.5
20260901154515 60 7 0.0 0.0 0.00 0.00 0.00 94 1008.6
20260901154010 59 7 0.0 0.0 0.00 0.00 0.00 94 1008.2
20260901153505 59 6 0.0 0.0 0.00 0.00 0.00 94 1008.2
20260901153004 59 5 0.0 0.0 0.00 0.00 0.00 95 1008.2
20260901152459 59 15 0.0 0.0 0.00 0.00 0.00 95 1008.2
20260901151958 59 15 0.0 0.0 0.00 0.00 0.00 95 1008.1
20260901151454 59 15 0.0 0.0 0.00 0.00 0.00 95 1008.1
20260901150953 59 15 0.0 0.0 0.00 0.00 0.00 95 1008.1
20260901150451 59 15 0.0 0.0 0.00 0.00 0.00 96 1008.2
20260901145949 58 15 0.0 0.0 0.00 0.00 0.00 97 1007.9
20260901145443 58 15 0.0 0.0 0.00 0.00 0.00 97 1008.3
20260901144937 58 15 0.0 0.0 0.00 0.00 0.00 97 1008.2
20260901144433 58 15 0.0 0.0 0.00 0.00 0.00 97 1008.2
20260901143929 57 15 0.0 0.0 0.00 0.00 0.00 98 1008.2
20260901143425 57 15 0.0 0.0 0.00 0.00 0.00 98 1008.0
20260901142921 57 20 0.0 0.0 0.00 0.00 0.00 98 1008.0
20260901142420 57 20 0.0 0.0 0.00 0.00 0.00 98 1008.2
20260901141915 57 20 0.0 0.0 0.00 0.00 0.00 98 1008.2
20260901141410 57 20 0.0 0.0 0.00 0.00 0.00 98 1007.9
20260901140910 57 21 0.0 0.0 0.00 0.00 0.00 98 1007.9
20260901140408 57 21 0.0 0.0 0.00 0.00 0.00 98 1007.9
20260901135903 57 21 0.0 0.0 0.00 0.00 0.00 98 1008.0
20260901135357 57 20 0.0 0.0 0.00 0.00 0.00 98 1007.9
20260901134854 57 20 0.0 0.0 0.00 0.00 0.00 98 1007.7
20260901134348 57 20 0.0 0.0 0.00 0.00 0.00 98 1007.7
20260901133843 57 20 0.0 0.0 0.00 0.00 0.00 98 1007.6
20260901133342 57 20 0.0 0.0 0.00 0.00 0.00 98 1007.7
20260901132840 57 20 0.0 0.0 0.00 0.00 0.00 98 1007.4
20260901132335 57 20 0.0 0.0 0.00 0.00 0.00 97 1007.5
20260901131830 57 20 0.0 0.0 0.00 0.00 0.00 97 1007.7
20260901131329 58 20 0.0 0.0 0.00 0.00 0.00 98 1007.4
20260901130824 57 20 0.0 0.0 0.00 0.00 0.00 97 1007.5
20260901130319 57 20 0.0 0.0 0.00 0.00 0.00 98 1007.3
20260901125816 58 20 0.0 0.0 0.00 0.00 0.00 98 1007.3
20260901125311 58 20 0.0 0.0 0.00 0.00 0.00 97 1007.3
20260901124806 58 20 0.0 0.0 0.00 0.00 0.00 97 1007.5
20260901124301 58 20 0.0 0.0 0.00 0.00 0.00 97 1007.4
20260901123800 58 20 0.0 0.0 0.00 0.00 0.00 97 1007.5
20260901123255 58 20 0.0 0.0 0.00 0.00 0.00 97 1007.5
20260901122754 58 20 0.0 0.0 0.00 0.00 0.00 97 1007.5
20260901122249 58 20 0.0 0.0 0.00 0.00 0.00 97 1007.3
20260901121748 58 20 0.0 0.0 0.00 0.00 0.00 97 1007.3
20260901121244 58 20 0.0 0.0 0.00 0.00 0.00 97 1007.4
20260901120743 58 20 0.0 0.0 0.00 0.00 0.00 97 1007.4
20260901120238 58 20 0.0 0.0 0.00 0.00 0.00 97 1007.6
20260901115734 58 20 0.0 0.0 0.00 0.00 0.00 97 1007.5
20260901115229 58 17 0.0 0.0 0.00 0.00 0.00 97 1007.5
20260901114726 58 10 0.0 0.0 0.00 0.00 0.00 97 1007.6
20260901114221 58 10 0.0 0.0 0.00 0.00 0.00 97 1007.3
20260901113719 58 23 0.0 0.0 0.00 0.00 0.00 97 1007.6
20260901113215 58 23 0.0 0.0 0.00 0.00 0.00 97 1007.7
20260901112714 58 23 0.0 0.0 0.00 0.00 0.00 97 1007.6
20260901112209 58 23 0.0 0.0 0.00 0.00 0.00 97 1007.7
20260901111708 58 23 0.0 0.0 0.00 0.00 0.00 97 1007.6
20260901111202 58 23 0.0 0.0 0.00 0.00 0.00 97 1007.7
20260901110656 58 23 0.0 0.0 0.00 0.00 0.00 97 1007.5
20260901110152 58 23 0.0 0.0 0.00 0.00 0.00 97 1007.5
20260901105648 58 23 0.0 0.0 0.00 0.00 0.00 97 1007.4
20260901105148 58 23 0.0 0.0 0.00 0.00 0.00 97 1007.6
20260901104644 58 23 0.0 0.0 0.00 0.00 0.00 97 1007.7
20260901104139 58 23 0.0 0.0 0.00 0.00 0.00 96 1007.8
20260901103638 58 23 0.0 0.0 0.00 0.00 0.00 96 1007.7
20260901103134 58 23 0.0 0.0 0.00 0.00 0.00 96 1007.7
20260901102634 58 24 0.0 0.0 0.00 0.00 0.00 96 1007.8
20260901102128 58 23 0.0 0.0 0.00 0.00 0.00 96 1007.9
20260901101625 58 23 0.0 0.0 0.00 0.00 0.00 96 1007.8
20260901101123 58 23 0.0 0.0 0.00 0.00 0.00 96 1007.7
20260901100623 58 23 0.0 0.0 0.00 0.00 0.00 95 1007.6
20260901100118 58 23 0.0 0.0 0.00 0.00 0.00 96 1007.8
20260901095617 58 24 0.0 0.0 0.00 0.00 0.00 96 1007.7
20260901095114 59 10 0.0 0.0 0.00 0.00 0.00 96 1007.7
20260901094609 59 10 0.0 0.0 0.00 0.00 0.00 95 1007.9
20260901094103 59 10 0.0 0.0 0.00 0.00 0.00 96 1007.8
20260901093558 59 9 0.0 0.0 0.00 0.00 0.00 95 1007.9
20260901093058 59 9 0.0 0.0 0.00 0.00 0.00 95 1007.8
20260901092553 59 9 0.0 0.0 0.00 0.00 0.00 95 1007.7
20260901092050 59 9 0.0 0.0 0.00 0.00 0.00 95 1007.9
20260901091546 59 9 0.0 0.0 0.00 0.00 0.00 95 1007.9
20260901091046 59 9 0.0 0.0 0.00 0.00 0.00 95 1007.8
20260901090545 59 10 0.0 0.0 0.00 0.00 0.00 95 1008.2
20260901090041 59 9 0.0 0.0 0.00 0.00 0.00 95 1007.9
20260901085536 59 359 0.0 0.0 0.00 0.00 0.00 95 1007.9
20260901085033 59 359 0.0 0.0 0.00 0.00 0.00 94 1007.8
20260901084528 59 359 0.0 0.0 0.00 0.00 0.00 94 1008.1
20260901084025 59 359 0.0 0.0 0.00 0.00 0.00 94 1007.8
20260901083524 59 359 0.0 0.0 0.00 0.00 0.00 94 1007.9
20260901083022 59 359 0.0 0.0 0.00 0.00 0.00 94 1007.9
20260901082518 59 359 0.0 0.0 0.00 0.00 0.00 94 1007.9
20260901082013 59 359 0.0 0.0 0.00 0.00 0.00 94 1007.8
20260901081508 59 5 0.0 0.0 0.00 0.00 0.00 94 1008.0
20260901081003 59 5 0.0 0.0 0.00 0.00 0.00 94 1007.7
20260901080502 59 343 0.0 0.0 0.00 0.00 0.00 94 1007.5
20260901075956 59 343 0.0 0.0 0.00 0.00 0.00 94 1007.7
20260901075452 59 351 0.0 0.0 0.00 0.00 0.00 94 1007.6
20260901074950 59 34 0.0 0.0 0.00 0.00 0.00 93 1008.0
20260901074445 59 38 0.0 0.0 0.00 0.00 0.00 93 1008.0
20260901073941 59 24 0.0 0.0 0.00 0.00 0.00 94 1007.9
20260901073438 59 354 0.0 0.0 0.00 0.00 0.00 93 1007.9
20260901072938 59 11 0.0 0.0 0.00 0.00 0.00 93 1007.8
20260901072438 59 12 0.0 0.0 0.00 0.00 0.00 93 1007.5
20260901071933 59 12 0.0 0.0 0.00 0.00 0.00 93 1007.8
20260901071432 59 16 0.0 0.0 0.00 0.00 0.00 93 1007.7
20260901070926 59 26 0.0 0.0 0.00 0.00 0.00 93 1007.6
20260901070421 59 23 0.0 0.0 0.00 0.00 0.00 93 1007.7
20260901065920 59 23 0.0 0.0 0.00 0.00 0.00 93 1007.8
20260901065416 59 23 0.0 0.0 0.00 0.00 0.00 93 1007.8
20260901064911 59 23 0.0 0.0 0.00 0.00 0.00 93 1007.8
20260901064407 59 23 0.0 0.0 0.00 0.00 0.00 93 1007.8
20260901063904 59 20 0.0 0.0 0.00 0.00 0.00 93 1007.8
20260901063401 59 24 0.0 0.0 0.00 0.00 0.00 93 1008.0
20260901062856 59 5 0.0 0.0 0.00 0.00 0.00 93 1007.9
20260901062352 59 4 0.0 0.0 0.00 0.00 0.00 94 1007.9
20260901061847 59 3 0.0 0.0 0.00 0.00 0.00 94 1007.8
20260901061343 59 3 0.0 0.0 0.00 0.00 0.00 93 1007.8
20260901060838 59 3 0.0 0.0 0.00 0.00 0.00 93 1007.9
20260901060334 59 3 0.0 0.0 0.00 0.00 0.00 93 1007.9
20260901055833 59 3 0.0 0.0 0.00 0.00 0.00 94 1007.9
20260901055329 59 2 0.0 0.0 0.00 0.00 0.00 94 1008.1
20260901054826 59 2 0.0 0.0 0.00 0.00 0.00 94 1008.1
20260901054323 59 2 0.0 0.0 0.00 0.00 0.00 94 1008.2
20260901053818 59 2 0.0 0.0 0.00 0.00 0.00 94 1008.2
20260901053313 60 2 0.0 0.0 0.00 0.00 0.00 94 1008.2
20260901052809 60 2 0.0 0.0 0.00 0.00 0.00 94 1008.1
20260901052307 60 2 0.0 0.0 0.00 0.00 0.00 95 1008.4
20260901051757 60 2 0.0 0.0 0.00 0.00 0.00 94 1008.2
20260901051252 60 2 0.0 0.0 0.00 0.00 0.00 95 1008.4
20260901050748 60 2 0.0 0.0 0.00 0.00 0.00 95 1008.4
20260901050243 60 2 0.0 0.0 0.00 0.00 0.00 95 1008.1
20260901045738 60 2 0.0 0.0 0.00 0.00 0.00 95 1008.4
20260901045232 60 2 0.0 0.0 0.00 0.00 0.00 95 1008.4
20260901044728 60 2 0.0 0.0 0.00 0.00 0.00 95 1008.4
20260901044224 60 2 0.0 0.0 0.00 0.00 0.00 95 1008.6
20260901043720 60 2 0.0 0.0 0.00 0.00 0.00 94 1008.4
20260901043215 60 2 0.0 0.0 0.00 0.00 0.00 94 1008.2
20260901042714 60 2 0.0 0.0 0.00 0.00 0.00 94 1008.2
20260901042209 60 0 0.0 0.0 0.00 0.00 0.00 94 1008.2
20260901041706 60 0 0.0 0.0 0.00 0.00 0.00 94 1008.4
20260901041205 60 0 0.0 0.0 0.00 0.00 0.00 94 1008.3
20260901040659 60 0 0.0 0.0 0.00 0.00 0.00 94 1008.1
20260901040153 60 0 0.0 0.0 0.00 0.00 0.00 94 1008.1
20260901035652 60 0 0.0 0.0 0.00 0.00 0.00 94 1008.0
20260901035150 60 0 0.0 0.0 0.00 0.00 0.00 93 1008.1
20260901034644 60 0 0.0 0.0 0.00 0.00 0.00 93 1007.9
20260901034139 61 0 0.0 0.0 0.00 0.00 0.00 93 1007.8
20260901033638 61 0 0.0 0.0 0.00 0.00 0.00 93 1007.9
20260901033137 61 0 0.0 0.0 0.00 0.00 0.00 93 1008.1
20260901032636 61 0 0.0 0.0 0.00 0.00 0.00 92 1007.8
20260901032131 61 0 0.0 0.0 0.00 0.00 0.00 93 1008.2
20260901031626 61 0 0.0 0.0 0.00 0.00 0.00 93 1008.0
20260901031122 61 0 0.0 0.0 0.00 0.00 0.00 93 1007.9
20260901030617 61 0 0.0 0.0 0.00 0.00 0.00 93 1007.8
20260901030112 61 0 0.0 0.0 0.00 0.00 0.00 93 1007.8
20260901025606 61 0 0.0 0.0 0.00 0.00 0.00 92 1007.8
20260901025100 61 0 0.0 0.0 0.00 0.00 0.00 92 1007.6
20260901024555 62 0 0.0 0.0 0.00 0.00 0.00 91 1007.6
20260901024054 62 0 0.0 0.0 0.00 0.00 0.00 91 1007.6
20260901023553 62 0 0.0 0.0 0.00 0.00 0.00 91 1007.7
20260901023048 62 0 0.0 0.0 0.00 0.00 0.00 91 1007.8
20260901022543 62 0 0.0 0.0 0.00 0.00 0.00 91 1007.8
20260901022039 62 347 0.0 0.0 0.00 0.00 0.00 91 1007.7
20260901021534 62 347 0.0 0.0 0.00 0.00 0.00 91 1007.8
20260901021029 62 347 0.0 0.0 0.00 0.00 0.00 90 1007.7
20260901020525 62 347 0.0 0.0 0.00 0.00 0.00 90 1007.8
20260901020020 62 347 0.0 0.0 0.00 0.00 0.00 89 1007.9
20260901015515 62 347 0.0 0.0 0.00 0.00 0.00 89 1007.7
20260901015015 62 347 0.0 0.0 0.00 0.00 0.00 89 1007.7
20260901014511 62 347 0.0 0.0 0.00 0.00 0.00 89 1007.5
20260901014007 62 348 0.0 0.0 0.00 0.00 0.00 89 1007.7
20260901013502 62 348 0.0 0.0 0.00 0.00 0.00 89 1007.6
20260901012957 62 348 0.0 0.0 0.00 0.00 0.00 89 1007.6
20260901012457 62 334 0.0 0.0 0.00 0.00 0.00 89 1007.6
20260901011953 63 348 0.0 0.0 0.00 0.00 0.00 88 1007.6
20260901011449 63 344 0.0 0.0 0.00 0.00 0.00 88 1007.6
20260901010946 63 348 0.0 0.0 0.00 0.00 0.00 88 1007.5
20260901010442 63 348 0.0 0.0 0.00 0.00 0.00 88 1007.6
20260901005941 63 347 0.0 0.0 0.00 0.00 0.00 88 1007.6
20260901005436 62 349 0.0 0.0 0.00 0.00 0.00 88 1007.5
20260901004931 62 344 0.0 0.0 0.00 0.00 0.00 88 1007.8
20260901004430 63 347 0.0 0.0 0.00 0.00 0.00 88 1007.6
20260901003925 62 341 1.0 1.0 0.00 0.00 0.00 88 1007.7
20260901003420 62 344 0.0 0.0 0.00 0.00 0.00 88 1007.8
20260901002919 62 348 2.0 2.0 0.00 0.00 0.00 88 1007.7
20260901002418 62 326 2.0 2.0 0.00 0.00 0.00 88 1007.6
20260901001913 63 354 1.0 1.0 0.00 0.00 0.00 88 1007.6
20260901001409 63 334 2.0 2.0 0.00 0.00 0.00 87 1007.6
20260901000904 63 333 0.0 0.0 0.00 0.00 0.00 86 1007.7
20260901000359 64 342 1.0 2.0 0.00 0.00 0.00 85 1007.7
20260831235857 64 349 1.0 1.0 0.00 0.00 0.00 85 1007.5
20260831235354 63 349 1.0 1.0 0.00 0.00 0.00 85 1007.6
20260831234853 63 339 2.0 2.0 0.00 0.00 0.00 84 1007.7
20260831234348 64 345 1.0 2.0 0.00 0.00 0.00 84 1007.6
20260831233844 64 347 1.0 2.0 0.00 0.00 0.00 84 1007.9
20260831233338 64 346 1.0 1.0 0.00 0.00 0.00 84 1008.0
20260831232834 64 345 1.0 1.0 0.00 0.00 0.00 85 1008.1
20260831232330 64 320 1.0 1.0 0.00 0.00 0.00 84 1007.9
20260831231826 63 351 1.0 1.0 0.00 0.00 0.00 83 1008.2
20260831231322 63 348 0.0 1.0 0.00 0.00 0.00 85 1008.1
20260831230817 63 335 2.0 2.0 0.00 0.00 0.00 85 1008.0
20260831230312 63 319 1.0 2.0 0.00 0.00 0.00 85 1007.9
20260831225812 63 314 4.0 5.0 0.00 0.00 0.00 85 1008.3
20260831225307 64 343 2.0 2.0 0.00 0.00 0.00 84 1008.0
20260831224802 64 347 0.0 1.0 0.00 0.00 0.00 85 1007.9
20260831224257 64 342 1.0 2.0 0.00 0.00 0.00 84 1008.1
20260831223752 64 349 1.0 1.0 0.00 0.00 0.00 84 1008.1
20260831223248 64 344 0.0 0.0 0.00 0.00 0.00 85 1008.0
20260831222744 64 317 3.0 3.0 0.00 0.00 0.00 84 1008.0
20260831222240 64 340 3.0 3.0 0.00 0.00 0.00 84 1008.0
20260831221735 64 345 1.0 1.0 0.00 0.00 0.00 84 1007.9
20260831221230 64 337 1.0 1.0 0.00 0.00 0.00 84 1008.2
20260831220725 64 349 1.0 1.0 0.00 0.00 0.00 84 1008.2
20260831220220 64 347 1.0 1.0 0.00 0.00 0.00 84 1008.1
20260831215715 64 348 1.0 2.0 0.00 0.00 0.00 84 1008.3
20260831215211 64 354 0.0 0.0 0.00 0.00 0.00 85 1008.1
20260831214708 64 340 0.0 0.0 0.00 0.00 0.00 84 1008.1
20260831214204 64 348 0.0 0.0 0.00 0.00 0.00 84 1008.4
20260831213700 64 334 2.0 2.0 0.00 0.00 0.00 84 1008.3
20260831213156 63 338 2.0 2.0 0.00 0.00 0.00 85 1008.6
20260831212651 63 347 1.0 2.0 0.00 0.00 0.00 86 1008.4